User: anonymous   Login
Location: Unspecified
(0.0000°N, 0.0000°E)
Time: 08:56:54
(UTC+00:00)
Language:

BEIJING 3B - Orbit

View from above orbital plane
View from above orbital plane
View from above satellite
View from above satellite

Ground track
Ground track

The orbit is defined by the following mean orbital elements,

1 53587U          26145.60923362 +.00000000 +00000-0 +12961-3 0 00002
2 53587  97.8013 223.4151 0026169 126.7315 233.6310 14.87127319    06
Epoch (UTC): 25 May 2026 14:37:17
Eccentricity: 0.0026169
inclination: 97.8013°
perigee height: 589 km
apogee height: 625 km
right ascension of ascending node: 223.4151°
argument of perigee: 126.7315°
revolutions per day: 14.87127319
mean anomaly at epoch: 233.6310°

The dashed part of the orbit path shows where the satellite is in the earth's shadow,  

DLR